Location: *
(35.2348°S, 91.3916°E)
Time: 20:17:44
(UTC+00:00)

DNEPR-1 R/B - Pass Details

Date: 23 October 2019
Orbit: 556 x 1366 km, 64.6° (Epoch: 17 November)

Event Time Altitude Azimuth Distance (km) Brightness Sun altitude
Exits shadow 21:29:58 30° 263° (W) 1,133 4.5 -18.1°
Maximum altitude 21:30:56 34° 236° (WSW) 1,038 4.4 -17.9°
Drops below altitude 10° 21:34:48 10° 170° (S) 1,911 6.6 -17.3°
Sets 21:37:06 0° 160° (SSE) 2,784 7.7 -16.8°
